Location: *
(41.7492°S, 135.4150°W)
Time: 20:18:06
(UTC+00:00)

Oscar 19 - Pass Details

Date: 05 July 2022
Orbit: 773 x 790 km, 98.8° (Epoch: 09 August)

Event Time Altitude Azimuth Distance (km) Brightness Sun altitude
Rises 02:25:16 0° 187° (S) 3,326 13.7 -7.8°
Reaches altitude 10° 02:29:28 10° 220° (SW) 2,387 13.4 -8.5°
Maximum altitude 02:30:58 11° 236° (WSW) 2,297 13.6 -8.8°
Drops below altitude 10° 02:32:28 10° 253° (WSW) 2,379 14.0 -9.0°
Sets 02:36:38 0° 286° (WNW) 3,295 16.1 -9.8°
